| time (UTC) | temp F | wind direction | speed MPH | gust MPH | rain 1hr in | rain 24hr in | rain mn in | humidity % | barometer mb |
| 20260831205801 | 61 | 292 | 0.0 | 0.0 | 0.09 | 1.01 | 0.51 | 90 | 1006.7 |
| 20260831195801 | 60 | 315 | 0.0 | 0.0 | 0.05 | 0.92 | 0.42 | 91 | 1005.8 |
| 20260831185801 | 61 | 315 | 0.0 | 0.0 | 0.27 | 0.86 | 0.36 | 91 | 1004.5 |
| 20260831175802 | 61 | 270 | 0.0 | 0.0 | 0.07 | 0.59 | 0.09 | 88 | 1004.1 |
| 20260831165801 | 62 | 292 | 0.0 | 0.0 | 0.00 | 0.51 | 0.02 | 86 | 1003.8 |
| 20260831155801 | 64 | 292 | 0.0 | 0.0 | 0.00 | 0.51 | 0.02 | 73 | 1003.2 |
| 20260831145801 | 67 | 337 | 0.0 | 0.0 | 0.00 | 0.51 | 0.02 | 68 | 1002.9 |
| 20260831135801 | 65 | 315 | 0.0 | 0.0 | 0.00 | 0.51 | 0.02 | 74 | 1002.6 |
| 20260831125801 | 63 | 22 | 0.0 | 0.0 | 0.00 | 0.51 | 0.02 | 80 | 1002.4 |
| 20260831115802 | 69 | 225 | 0.0 | 0.0 | 0.00 | 0.51 | 0.02 | 68 | 1002.1 |
| 20260831105802 | 67 | 247 | 0.0 | 0.0 | 0.00 | 0.51 | 0.02 | 72 | 1001.9 |
| 20260831095801 | 66 | 180 | 0.0 | 0.0 | 0.00 | 0.51 | 0.02 | 76 | 1002.6 |
| 20260831085802 | 65 | 247 | 0.0 | 0.0 | 0.00 | 0.51 | 0.02 | 81 | 1002.0 |
| 20260831075802 | 64 | 225 | 0.0 | 0.0 | 0.00 | 0.51 | 0.02 | 86 | 1002.0 |
| 20260831065801 | 61 | 180 | 0.0 | 0.0 | 0.00 | 0.51 | 0.02 | 89 | 1002.4 |
| 20260831055801 | 60 | 247 | 0.0 | 0.0 | 0.00 | 0.51 | 0.02 | 91 | 1002.5 |
| 20260831045801 | 60 | 180 | 0.0 | 0.0 | 0.01 | 0.51 | 0.02 | 91 | 1002.3 |
| 20260831035801 | 60 | 270 | 0.0 | 0.0 | 0.00 | 0.50 | 0.01 | 93 | 1002.4 |
| 20260831025802 | 61 | 337 | 0.0 | 0.0 | 0.01 | 0.50 | 0.01 | 93 | 1002.8 |
| 20260831015801 | 61 | 135 | 0.0 | 0.0 | 0.00 | 0.49 | 0.00 | 94 | 1003.1 |
| 20260831005801 | 61 | 0 | 0.0 | 0.0 | 0.00 | 0.49 | 0.00 | 93 | 1004.3 |
| 20260830235801 | 61 | 157 | 0.0 | 0.0 | 0.00 | 0.49 | 0.37 | 93 | 1004.7 |
| 20260830225802 | 62 | 202 | 0.0 | 0.0 | 0.00 | 0.49 | 0.37 | 92 | 1005.4 |
| 20260830215801 | 62 | 202 | 0.0 | 0.0 | 0.00 | 0.49 | 0.37 | 91 | 1005.7 |